Difficulty: Professional

Race-200-Montsaleon
ontsaleon (LFTM) France – Montsaleon (LFTM) France

Time and date when contest available for download and participation: 2022-03-11 12:00:00
Race will be opened after selected time passed: 2022-03-12 12:00:00
Time and date after competition close: 2022-12-31 12:00:00
Sea level altitude

Bottom elevation of start gate: 4000 ft
Top elevation of start gate: 6000 ft
START gate width: 5000 m

Bottom elevation of checkpoints: not limited
Top elevation of checkpoints: 6000 ft
Checkpoint Width: 1000 m

Final Point of the flight plan before FINISH
Bottom elevation of final gate: not limited
Top elevation of final gate: 6000 ft
Final Width: 500 m

FINISH Bottom elevation of finish gate: 2500 ft
Top elevation of finish gate: 3000 ft
Finish Width: 500 m

Length: 200 km
Approximate Time: 01:05:00

In this race, the thermals generated by Kinetic Assistant are applied.

Discord channel: Race-200-Montsaleon

Recommended Scene: Serres La Batie Montsaleon Airport (LFTM) Gliding in France by Photosbykev

Race files for manual installationlaederboard_table
Glider model: DG 808S
1. ANRI 00:58:36 204.7km/h 1000 April 17 2022 19:26
2. SJAY 00:58:43 204.4km/h 998 June 16 2022 08:39
3. IBRESHIN 01:00:18 199.0km/h 971 March 31 2022 15:56
4. ADC Killerman 01:11:33 167.7km/h 819 March 27 2022 14:16
5. Clayton Kranz 01:11:38 167.5km/h 818 March 26 2022 14:49
6. Borealis_ru 01:14:50 160.3km/h 783 March 30 2022 21:46
7. Dolbitolog 01:14:59 160.0km/h 781 March 28 2022 13:12
8. VIRTAVIA67 01:25:41 140.0km/h 683 March 27 2022 12:56
9. Alexbighetti 01:28:34 135.5km/h 661 April 9 2022 05:47
SilentFly 00:06:55 1,733.9km/h May 29 2022 10:48
IBRESHIN 01:00:46 197.5km/h March 27 2022 17:49
IBRESHIN 01:01:33 194.9km/h March 31 2022 19:39
ANRI 01:01:45 194.3km/h March 27 2022 10:59
ANRI 01:03:53 187.8km/h March 11 2022 19:38
SJAY 01:05:11 184.1km/h April 18 2022 04:22
ANRI 01:05:58 181.9km/h March 27 2022 12:37
IBRESHIN 01:07:36 177.5km/h March 26 2022 18:54
SJAY 01:11:30 167.8km/h April 17 2022 14:27
Borealis_ru 01:18:20 153.2km/h April 8 2022 16:52
Dolbitolog 01:21:29 147.2km/h March 27 2022 18:51
Borealis_ru 01:23:28 143.7km/h April 3 2022 16:06
ADC Killerman 01:23:37 143.5km/h April 3 2022 20:59
ADC Killerman 01:26:24 138.9km/h March 20 2022 16:50
Rikki 01:28:18 135.9km/h March 27 2022 22:08
ADC Killerman 01:39:26 120.7km/h March 19 2022 11:23
Glider model: AS AS-33me
1. IBRESHIN 01:01:11 196.1km/h 1000 March 28 2022 20:14
2. Clayton Kranz 01:08:42 174.6km/h 890 March 23 2022 18:15
3. lenidcamper 01:09:46 172.0km/h 877 April 12 2022 14:00
4. ADC Killerman 01:12:54 164.6km/h 839 March 20 2022 15:07
5. Shogunn 01:14:56 160.1km/h 816 April 14 2022 17:55
IBRESHIN 01:01:48 194.1km/h March 13 2022 17:45
IBRESHIN 01:04:13 186.8km/h March 25 2022 21:03
IBRESHIN 01:04:27 186.2km/h March 26 2022 14:41
IBRESHIN 01:05:25 183.4km/h March 24 2022 21:35
IBRESHIN 01:06:29 180.5km/h March 21 2022 18:34
IBRESHIN 01:08:44 174.6km/h March 17 2022 20:37
IBRESHIN 01:09:39 172.3km/h March 17 2022 18:24
Paddy 01:12:42 165.1km/h April 2 2022 08:56
lenidcamper 01:13:26 163.4km/h April 10 2022 14:52
Shogunn 01:17:25 155.0km/h April 11 2022 17:09
orthliu 01:17:54 154.0km/h April 4 2022 17:28
paradude60 01:19:53 150.2km/h March 15 2022 09:45
lenidcamper 01:20:40 148.7km/h April 8 2022 15:00
Glider model: LS LS4
1. Taliskye 01:23:07 144.4km/h 1000 April 7 2022 13:33
Taliskye 01:23:18 144.0km/h April 7 2022 11:46

2 Comments

  • ALBATROSS TEAM Posted March 15 2022 18:04

    Emil AS-33ME MARCH 15 2022 09:45 – violation of the rules of the race – used weather preset different from Race-200-Montsaleon.WPR
    The result is translated into the training.

  • ALBATROSS TEAM Posted March 14 2022 09:55

    IBRESHIN AS-33ME MARCH 13 2022 17:45 – violation of the rules of the race – used weather preset different from Race-200-Montsaleon.WPR
    The result is translated into the training.

Add Comment

Only active ALBATROSS Racing Club members can post comments